Time,TemperatureF,DewpointF,PressureIn,WindDirection,WindDirectionDegrees,WindSpeedMPH,WindSpeedGustMPH,Humidity,HourlyPrecipIn,Conditions,Clouds,dailyrainin,SoftwareType,DateUTC
2013-02-28 00:03:00,22.4,19.1,30.09,NNW,346,7.0,7.0,87,0.00,,,0.00,Wunderground v.1.15,2013-02-28 06:03:00,
2013-02-28 00:08:00,22.4,19.1,30.09,NNW,342,3.0,7.0,87,0.00,,,0.00,Wunderground v.1.15,2013-02-28 06:08:00,
2013-02-28 00:14:00,22.4,19.1,30.09,NNW,342,5.0,6.0,87,0.00,,,0.00,Wunderground v.1.15,2013-02-28 06:14:00,
2013-02-28 00:19:00,22.4,19.1,30.09,North,355,5.0,11.0,87,0.00,,,0.00,Wunderground v.1.15,2013-02-28 06:19:00,
2013-02-28 00:26:00,22.4,19.1,30.10,North,355,5.0,5.0,87,0.00,,,0.00,Wunderground v.1.15,2013-02-28 06:26:00,
2013-02-28 00:31:00,22.3,19.0,30.10,NNW,344,4.0,4.0,87,0.00,,,0.00,Wunderground v.1.15,2013-02-28 06:31:00,
2013-02-28 00:37:00,22.2,18.7,30.10,NNW,341,6.0,6.0,86,0.00,,,0.00,Wunderground v.1.15,2013-02-28 06:37:00,
2013-02-28 00:42:00,22.1,18.6,30.10,NNW,348,5.0,9.0,86,0.00,,,0.00,Wunderground v.1.15,2013-02-28 06:42:00,
2013-02-28 00:48:00,22.1,18.8,30.10,North,355,3.0,9.0,87,0.00,,,0.00,Wunderground v.1.15,2013-02-28 06:48:00,
2013-02-28 00:53:00,22.0,18.7,30.10,NNW,343,3.0,6.0,87,0.00,,,0.00,Wunderground v.1.15,2013-02-28 06:53:00,
2013-02-28 00:58:00,22.0,18.7,30.10,NNW,344,6.0,6.0,87,0.00,,,0.00,Wunderground v.1.15,2013-02-28 06:58:00,
2013-02-28 01:04:00,21.9,18.4,30.10,NNW,344,8.0,9.0,86,0.00,,,0.00,Wunderground v.1.15,2013-02-28 07:04:00,
2013-02-28 01:09:00,21.8,18.3,30.10,North,355,3.0,9.0,86,0.00,,,0.00,Wunderground v.1.15,2013-02-28 07:09:00,
2013-02-28 01:14:00,21.7,18.4,30.10,North,355,4.0,9.0,87,0.00,,,0.00,Wunderground v.1.15,2013-02-28 07:14:00,
2013-02-28 01:21:00,21.4,17.9,30.10,North,349,4.0,5.0,86,0.00,,,0.00,Wunderground v.1.15,2013-02-28 07:21:00,
2013-02-28 01:26:00,21.2,17.9,30.10,NNW,345,1.0,5.0,87,0.00,,,0.00,Wunderground v.1.15,2013-02-28 07:26:00,
2013-02-28 01:32:00,21.0,17.5,30.10,NNW,340,0.0,4.0,86,0.00,,,0.00,Wunderground v.1.15,2013-02-28 07:32:00,
2013-02-28 01:37:00,20.8,17.5,30.10,NNW,344,5.0,5.0,87,0.00,,,0.00,Wunderground v.1.15,2013-02-28 07:37:00,
2013-02-28 01:43:00,20.7,17.4,30.10,NNW,336,5.0,5.0,87,0.00,,,0.00,Wunderground v.1.15,2013-02-28 07:43:00,
2013-02-28 01:48:00,20.6,17.3,30.10,NNW,329,0.0,5.0,87,0.00,,,0.00,Wunderground v.1.15,2013-02-28 07:48:00,
2013-02-28 01:54:00,20.4,17.1,30.10,NNW,332,4.0,4.0,87,0.00,,,0.00,Wunderground v.1.15,2013-02-28 07:54:00,
2013-02-28 01:59:00,20.3,17.0,30.11,NW,326,7.0,7.0,87,0.00,,,0.00,Wunderground v.1.15,2013-02-28 07:59:00,
2013-02-28 02:04:00,20.2,17.0,30.10,NW,326,5.0,7.0,87,0.00,,,0.00,Wunderground v.1.15,2013-02-28 08:04:00,
2013-02-28 02:09:00,20.1,16.9,30.11,NW,325,1.0,7.0,87,0.00,,,0.00,Wunderground v.1.15,2013-02-28 08:09:00,
2013-02-28 02:14:00,20.0,16.8,30.10,NNW,337,2.0,7.0,87,0.00,,,0.00,Wunderground v.1.15,2013-02-28 08:14:00,
2013-02-28 02:19:00,20.0,17.0,30.11,NNW,336,3.0,7.0,88,0.00,,,0.00,Wunderground v.1.15,2013-02-28 08:19:00,
2013-02-28 02:24:00,19.9,16.7,30.11,NNW,333,2.0,6.0,87,0.00,,,0.00,Wunderground v.1.15,2013-02-28 08:24:00,
2013-02-28 02:29:00,20.0,17.0,30.11,NNW,331,3.0,8.0,88,0.00,,,0.00,Wunderground v.1.15,2013-02-28 08:29:00,
2013-02-28 02:34:00,20.0,17.0,30.11,North,360,3.0,10.0,88,0.00,,,0.00,Wunderground v.1.15,2013-02-28 08:34:00,
2013-02-28 02:39:00,20.0,17.0,30.11,NNW,330,4.0,11.0,88,0.00,,,0.00,Wunderground v.1.15,2013-02-28 08:39:00,
2013-02-28 02:44:00,20.0,17.0,30.11,NNW,341,5.0,6.0,88,0.00,,,0.00,Wunderground v.1.15,2013-02-28 08:44:00,
2013-02-28 02:49:00,19.9,16.9,30.11,NNW,330,5.0,8.0,88,0.00,,,0.00,Wunderground v.1.15,2013-02-28 08:49:00,
2013-02-28 02:54:00,19.9,16.9,30.11,NNW,331,1.0,6.0,88,0.00,,,0.00,Wunderground v.1.15,2013-02-28 08:54:00,
2013-02-28 02:59:00,19.9,16.9,30.11,NNW,337,4.0,6.0,88,0.00,,,0.00,Wunderground v.1.15,2013-02-28 08:59:00,
2013-02-28 03:04:00,19.9,16.9,30.11,NNW,338,1.0,8.0,88,0.00,,,0.00,Wunderground v.1.15,2013-02-28 09:04:00,
2013-02-28 03:09:00,19.8,16.8,30.11,NNW,337,5.0,8.0,88,0.00,,,0.00,Wunderground v.1.15,2013-02-28 09:09:00,
2013-02-28 03:14:00,19.7,16.7,30.11,North,355,7.0,9.0,88,0.00,,,0.00,Wunderground v.1.15,2013-02-28 09:14:00,
2013-02-28 03:19:00,19.7,16.7,30.12,North,355,2.0,9.0,88,0.00,,,0.00,Wunderground v.1.15,2013-02-28 09:19:00,
2013-02-28 03:24:00,19.7,16.7,30.12,NNW,342,4.0,6.0,88,0.00,,,0.00,Wunderground v.1.15,2013-02-28 09:24:00,
2013-02-28 03:29:00,19.7,17.0,30.12,NNW,330,7.0,8.0,89,0.00,,,0.00,Wunderground v.1.15,2013-02-28 09:29:00,
2013-02-28 03:34:00,19.7,17.0,30.12,NW,321,5.0,10.0,89,0.00,,,0.00,Wunderground v.1.15,2013-02-28 09:34:00,
2013-02-28 03:39:00,19.7,17.0,30.12,NNW,327,4.0,10.0,89,0.00,,,0.00,Wunderground v.1.15,2013-02-28 09:39:00,
2013-02-28 03:44:00,19.7,17.0,30.12,NW,318,7.0,9.0,89,0.00,,,0.00,Wunderground v.1.15,2013-02-28 09:44:00,
2013-02-28 03:49:00,19.7,17.0,30.13,NW,321,8.0,9.0,89,0.00,,,0.00,Wunderground v.1.15,2013-02-28 09:49:00,
2013-02-28 03:54:00,19.8,17.1,30.13,NW,319,7.0,17.0,89,0.00,,,0.00,Wunderground v.1.15,2013-02-28 09:54:00,
2013-02-28 03:59:00,19.7,17.0,30.13,NW,322,7.0,17.0,89,0.00,,,0.00,Wunderground v.1.15,2013-02-28 09:59:00,
2013-02-28 04:04:00,19.9,17.2,30.13,NNW,327,5.0,12.0,89,0.00,,,0.00,Wunderground v.1.15,2013-02-28 10:04:00,
2013-02-28 04:09:00,20.0,17.3,30.13,NW,322,4.0,12.0,89,0.00,,,0.00,Wunderground v.1.15,2013-02-28 10:09:00,
2013-02-28 04:14:00,20.1,17.4,30.13,NNW,327,9.0,12.0,89,0.00,,,0.00,Wunderground v.1.15,2013-02-28 10:14:00,
2013-02-28 04:21:00,20.2,17.5,30.13,NNW,336,8.0,8.0,89,0.00,,,0.00,Wunderground v.1.15,2013-02-28 10:21:00,
2013-02-28 04:33:00,20.2,17.5,30.13,NW,323,10.0,10.0,89,0.00,,,0.00,Wunderground v.1.15,2013-02-28 10:33:00,
2013-02-28 04:38:00,20.3,17.6,30.14,NW,325,5.0,11.0,89,0.00,,,0.00,Wunderground v.1.15,2013-02-28 10:38:00,
2013-02-28 04:43:00,20.2,17.5,30.14,NNW,330,7.0,9.0,89,0.00,,,0.00,Wunderground v.1.15,2013-02-28 10:43:00,
2013-02-28 04:48:00,20.3,17.6,30.14,NW,323,3.0,9.0,89,0.00,,,0.00,Wunderground v.1.15,2013-02-28 10:48:00,
2013-02-28 04:53:00,20.3,17.6,30.14,NNW,331,7.0,7.0,89,0.00,,,0.00,Wunderground v.1.15,2013-02-28 10:53:00,
2013-02-28 04:58:00,20.4,17.7,30.14,NW,324,5.0,11.0,89,0.00,,,0.00,Wunderground v.1.15,2013-02-28 10:58:00,
2013-02-28 05:03:00,20.3,17.6,30.15,NW,322,9.0,10.0,89,0.00,,,0.00,Wunderground v.1.15,2013-02-28 11:03:00,
2013-02-28 05:08:00,20.3,17.6,30.15,NW,323,4.0,11.0,89,0.00,,,0.00,Wunderground v.1.15,2013-02-28 11:08:00,
2013-02-28 05:13:00,20.3,17.3,30.15,NW,317,7.0,13.0,88,0.00,,,0.00,Wunderground v.1.15,2013-02-28 11:13:00,
2013-02-28 05:18:00,20.3,17.3,30.15,NW,323,4.0,13.0,88,0.00,,,0.00,Wunderground v.1.15,2013-02-28 11:18:00,
2013-02-28 05:23:00,20.3,17.3,30.15,NW,325,3.0,9.0,88,0.00,,,0.00,Wunderground v.1.15,2013-02-28 11:23:00,
2013-02-28 05:28:00,20.3,17.3,30.15,NNW,329,4.0,9.0,88,0.00,,,0.00,Wunderground v.1.15,2013-02-28 11:28:00,
2013-02-28 05:34:00,20.3,17.3,30.15,NNW,334,9.0,10.0,88,0.00,,,0.00,Wunderground v.1.15,2013-02-28 11:34:00,
2013-02-28 05:39:00,20.3,17.3,30.15,NW,313,9.0,11.0,88,0.00,,,0.00,Wunderground v.1.15,2013-02-28 11:39:00,
2013-02-28 05:44:00,20.3,17.3,30.15,NNW,334,5.0,10.0,88,0.00,,,0.00,Wunderground v.1.15,2013-02-28 11:44:00,
2013-02-28 05:49:00,20.2,17.2,30.15,NW,325,7.0,11.0,88,0.00,,,0.00,Wunderground v.1.15,2013-02-28 11:49:00,
2013-02-28 05:54:00,20.2,17.2,30.15,NW,324,7.0,13.0,88,0.00,,,0.00,Wunderground v.1.15,2013-02-28 11:54:00,
2013-02-28 05:59:00,20.2,17.2,30.15,NW,325,5.0,13.0,88,0.00,,,0.00,Wunderground v.1.15,2013-02-28 11:59:00,
2013-02-28 06:04:00,20.2,17.2,30.15,NW,325,6.0,9.0,88,0.00,,,0.00,Wunderground v.1.15,2013-02-28 12:04:00,
2013-02-28 06:09:00,20.2,17.2,30.15,NW,323,7.0,11.0,88,0.00,,,0.00,Wunderground v.1.15,2013-02-28 12:09:00,
2013-02-28 06:14:00,20.2,17.2,30.15,NW,323,6.0,9.0,88,0.00,,,0.00,Wunderground v.1.15,2013-02-28 12:14:00,
2013-02-28 06:19:00,20.2,17.2,30.15,NW,325,5.0,9.0,88,0.00,,,0.00,Wunderground v.1.15,2013-02-28 12:19:00,
2013-02-28 06:24:00,20.1,17.1,30.15,NW,325,5.0,10.0,88,0.00,,,0.00,Wunderground v.1.15,2013-02-28 12:24:00,
2013-02-28 06:29:00,20.1,17.1,30.15,NW,322,1.0,10.0,88,0.00,,,0.00,Wunderground v.1.15,2013-02-28 12:29:00,
2013-02-28 06:34:00,20.0,17.0,30.15,NW,323,4.0,8.0,88,0.00,,,0.00,Wunderground v.1.15,2013-02-28 12:34:00,
2013-02-28 06:39:00,20.0,17.0,30.15,NW,323,9.0,9.0,88,0.00,,,0.00,Wunderground v.1.15,2013-02-28 12:39:00,
2013-02-28 06:44:00,20.0,17.0,30.15,NW,319,5.0,10.0,88,0.00,,,0.00,Wunderground v.1.15,2013-02-28 12:44:00,
2013-02-28 06:49:00,19.9,16.9,30.16,NW,319,7.0,11.0,88,0.00,,,0.00,Wunderground v.1.15,2013-02-28 12:49:00,
2013-02-28 06:54:00,19.9,16.9,30.16,NW,319,7.0,9.0,88,0.00,,,0.00,Wunderground v.1.15,2013-02-28 12:54:00,
2013-02-28 06:59:00,19.9,16.9,30.16,NW,320,7.0,9.0,88,0.00,,,0.00,Wunderground v.1.15,2013-02-28 12:59:00,
2013-02-28 07:04:00,19.9,16.9,30.16,NNW,328,5.0,13.0,88,0.00,,,0.00,Wunderground v.1.15,2013-02-28 13:04:00,
2013-02-28 07:09:00,19.9,16.9,30.16,NNW,329,7.0,13.0,88,0.00,,,0.00,Wunderground v.1.15,2013-02-28 13:09:00,
2013-02-28 07:14:00,19.9,16.7,30.16,NNW,329,9.0,11.0,87,0.00,,,0.00,Wunderground v.1.15,2013-02-28 13:14:00,
2013-02-28 07:19:00,20.0,17.0,30.16,NW,325,9.0,11.0,88,0.00,,,0.00,Wunderground v.1.15,2013-02-28 13:19:00,
2013-02-28 07:24:00,20.1,17.1,30.17,NNW,327,8.0,10.0,88,0.00,,,0.00,Wunderground v.1.15,2013-02-28 13:24:00,
2013-02-28 07:29:00,20.1,17.1,30.17,NNW,329,6.0,10.0,88,0.00,,,0.00,Wunderground v.1.15,2013-02-28 13:29:00,
2013-02-28 07:34:00,20.2,17.2,30.17,NNW,327,7.0,10.0,88,0.00,,,0.00,Wunderground v.1.15,2013-02-28 13:34:00,
2013-02-28 07:39:00,20.2,17.0,30.17,NNW,327,7.0,11.0,87,0.00,,,0.00,Wunderground v.1.15,2013-02-28 13:39:00,
2013-02-28 07:44:00,20.3,17.0,30.17,NW,325,8.0,13.0,87,0.00,,,0.00,Wunderground v.1.15,2013-02-28 13:44:00,
2013-02-28 07:49:00,20.4,17.1,30.17,NW,325,6.0,13.0,87,0.00,,,0.00,Wunderground v.1.15,2013-02-28 13:49:00,
2013-02-28 07:54:00,20.6,17.3,30.17,NW,326,4.0,11.0,87,0.00,,,0.00,Wunderground v.1.15,2013-02-28 13:54:00,
2013-02-28 07:59:00,20.7,17.4,30.17,NNW,327,6.0,11.0,87,0.00,,,0.00,Wunderground v.1.15,2013-02-28 13:59:00,
2013-02-28 08:04:00,20.8,17.5,30.18,NW,325,3.0,12.0,87,0.00,,,0.00,Wunderground v.1.15,2013-02-28 14:04:00,
2013-02-28 08:09:00,21.0,17.7,30.18,NW,325,9.0,12.0,87,0.00,,,0.00,Wunderground v.1.15,2013-02-28 14:09:00,
2013-02-28 08:14:00,21.1,17.8,30.18,NW,326,6.0,11.0,87,0.00,,,0.00,Wunderground v.1.15,2013-02-28 14:14:00,
2013-02-28 08:19:00,21.2,17.9,30.18,NNW,328,3.0,12.0,87,0.00,,,0.00,Wunderground v.1.15,2013-02-28 14:19:00,
2013-02-28 08:24:00,21.3,18.0,30.18,NW,321,6.0,12.0,87,0.00,,,0.00,Wunderground v.1.15,2013-02-28 14:24:00,
2013-02-28 08:29:00,21.4,18.1,30.18,NW,323,5.0,12.0,87,0.00,,,0.00,Wunderground v.1.15,2013-02-28 14:29:00,
2013-02-28 08:34:00,21.5,18.0,30.18,NW,324,6.0,11.0,86,0.00,,,0.00,Wunderground v.1.15,2013-02-28 14:34:00,
2013-02-28 08:39:00,21.5,18.0,30.19,NW,325,5.0,12.0,86,0.00,,,0.00,Wunderground v.1.15,2013-02-28 14:39:00,
2013-02-28 08:44:00,21.8,18.3,30.19,NW,321,6.0,8.0,86,0.00,,,0.00,Wunderground v.1.15,2013-02-28 14:44:00,
2013-02-28 08:49:00,21.7,18.2,30.19,NW,324,4.0,15.0,86,0.00,,,0.00,Wunderground v.1.15,2013-02-28 14:49:00,
2013-02-28 08:54:00,21.9,18.4,30.19,NW,323,8.0,10.0,86,0.00,,,0.00,Wunderground v.1.15,2013-02-28 14:54:00,
2013-02-28 08:59:00,21.9,18.4,30.19,NNW,329,8.0,11.0,86,0.00,,,0.00,Wunderground v.1.15,2013-02-28 14:59:00,
2013-02-28 09:04:00,21.9,18.4,30.19,NNW,328,6.0,10.0,86,0.00,,,0.00,Wunderground v.1.15,2013-02-28 15:04:00,
2013-02-28 09:09:00,22.0,18.5,30.19,NNW,330,5.0,10.0,86,0.00,,,0.00,Wunderground v.1.15,2013-02-28 15:09:00,
2013-02-28 09:14:00,22.3,18.7,30.19,NNW,329,5.0,8.0,86,0.00,,,0.00,Wunderground v.1.15,2013-02-28 15:14:00,
2013-02-28 09:19:00,22.4,18.8,30.19,NW,326,7.0,11.0,86,0.00,,,0.00,Wunderground v.1.15,2013-02-28 15:19:00,
2013-02-28 09:24:00,22.4,18.8,30.19,NNW,327,5.0,8.0,86,0.00,,,0.00,Wunderground v.1.15,2013-02-28 15:24:00,
2013-02-28 09:29:00,22.6,19.0,30.20,NW,326,0.0,8.0,86,0.00,,,0.00,Wunderground v.1.15,2013-02-28 15:29:00,
2013-02-28 09:34:00,22.9,19.3,30.20,NW,326,1.0,6.0,86,0.00,,,0.00,Wunderground v.1.15,2013-02-28 15:34:00,
2013-02-28 09:39:00,23.0,19.2,30.20,NW,326,0.0,6.0,85,0.00,,,0.00,Wunderground v.1.15,2013-02-28 15:39:00,
2013-02-28 09:44:00,23.1,19.3,30.19,NW,326,7.0,9.0,85,0.00,,,0.00,Wunderground v.1.15,2013-02-28 15:44:00,
2013-02-28 09:49:00,23.0,19.2,30.19,NNW,327,6.0,9.0,85,0.00,,,0.00,Wunderground v.1.15,2013-02-28 15:49:00,
2013-02-28 09:54:00,23.1,19.3,30.20,NNW,327,3.0,9.0,85,0.00,,,0.00,Wunderground v.1.15,2013-02-28 15:54:00,
2013-02-28 10:00:00,23.3,19.5,30.20,NW,325,5.0,9.0,85,0.00,,,0.00,Wunderground v.1.15,2013-02-28 16:00:00,
2013-02-28 10:05:00,23.3,19.2,30.20,NW,325,5.0,7.0,84,0.00,,,0.00,Wunderground v.1.15,2013-02-28 16:05:00,
2013-02-28 10:10:00,23.3,19.2,30.20,NW,325,6.0,9.0,84,0.00,,,0.00,Wunderground v.1.15,2013-02-28 16:10:00,
2013-02-28 10:15:00,23.3,19.2,30.20,NW,325,7.0,9.0,84,0.00,,,0.00,Wunderground v.1.15,2013-02-28 16:15:00,
2013-02-28 10:20:00,23.5,19.4,30.20,NW,325,0.0,4.0,84,0.00,,,0.00,Wunderground v.1.15,2013-02-28 16:20:00,
2013-02-28 10:25:00,23.7,19.6,30.20,NW,325,8.0,9.0,84,0.00,,,0.00,Wunderground v.1.15,2013-02-28 16:25:00,
2013-02-28 10:30:00,23.7,19.6,30.21,NW,324,3.0,4.0,84,0.00,,,0.00,Wunderground v.1.15,2013-02-28 16:30:00,
2013-02-28 10:35:00,23.9,19.8,30.21,NW,324,6.0,9.0,84,0.00,,,0.00,Wunderground v.1.15,2013-02-28 16:35:00,
2013-02-28 10:40:00,23.9,19.8,30.21,NW,323,7.0,7.0,84,0.00,,,0.00,Wunderground v.1.15,2013-02-28 16:40:00,
2013-02-28 10:45:00,23.8,19.7,30.21,NW,324,10.0,10.0,84,0.00,,,0.00,Wunderground v.1.15,2013-02-28 16:45:00,
2013-02-28 10:50:00,23.8,19.7,30.21,NW,325,7.0,9.0,84,0.00,,,0.00,Wunderground v.1.15,2013-02-28 16:50:00,
2013-02-28 10:56:00,23.9,19.8,30.21,NW,325,5.0,9.0,84,0.00,,,0.00,Wunderground v.1.15,2013-02-28 16:56:00,
2013-02-28 11:01:00,24.0,19.9,30.21,NW,326,10.0,10.0,84,0.00,,,0.00,Wunderground v.1.15,2013-02-28 17:01:00,
2013-02-28 11:07:00,24.0,19.9,30.21,NNW,328,8.0,11.0,84,0.00,,,0.00,Wunderground v.1.15,2013-02-28 17:07:00,
2013-02-28 11:12:00,24.0,19.9,30.21,NNW,327,7.0,8.0,84,0.00,,,0.00,Wunderground v.1.15,2013-02-28 17:12:00,
2013-02-28 11:17:00,24.1,20.0,30.21,NW,325,6.0,11.0,84,0.00,,,0.00,Wunderground v.1.15,2013-02-28 17:17:00,
2013-02-28 11:22:00,24.3,20.2,30.21,NW,325,6.0,7.0,84,0.00,,,0.00,Wunderground v.1.15,2013-02-28 17:22:00,
2013-02-28 11:27:00,24.3,20.2,30.21,NW,319,9.0,10.0,84,0.00,,,0.00,Wunderground v.1.15,2013-02-28 17:27:00,
2013-02-28 11:32:00,24.2,20.1,30.21,NW,322,9.0,9.0,84,0.00,,,0.00,Wunderground v.1.15,2013-02-28 17:32:00,
2013-02-28 11:37:00,24.2,20.1,30.21,NW,324,7.0,12.0,84,0.00,,,0.00,Wunderground v.1.15,2013-02-28 17:37:00,
2013-02-28 11:42:00,24.4,20.3,30.21,NW,325,6.0,8.0,84,0.00,,,0.00,Wunderground v.1.15,2013-02-28 17:42:00,
2013-02-28 11:47:00,24.5,20.4,30.21,NW,326,10.0,10.0,84,0.00,,,0.00,Wunderground v.1.15,2013-02-28 17:47:00,
2013-02-28 11:52:00,24.6,20.5,30.21,NW,322,7.0,7.0,84,0.00,,,0.00,Wunderground v.1.15,2013-02-28 17:52:00,
2013-02-28 11:57:00,24.6,20.5,30.21,NW,323,8.0,10.0,84,0.00,,,0.00,Wunderground v.1.15,2013-02-28 17:57:00,
2013-02-28 12:02:00,24.6,20.2,30.21,NW,315,8.0,11.0,83,0.00,,,0.00,Wunderground v.1.15,2013-02-28 18:02:00,
2013-02-28 12:07:00,24.8,20.4,30.21,NW,324,10.0,12.0,83,0.00,,,0.00,Wunderground v.1.15,2013-02-28 18:07:00,
2013-02-28 12:12:00,24.7,20.3,30.21,NW,325,8.0,10.0,83,0.00,,,0.00,Wunderground v.1.15,2013-02-28 18:12:00,
2013-02-28 12:17:00,24.7,20.3,30.21,NW,325,7.0,14.0,83,0.00,,,0.00,Wunderground v.1.15,2013-02-28 18:17:00,
2013-02-28 12:22:00,24.8,20.4,30.21,NW,326,7.0,10.0,83,0.00,,,0.00,Wunderground v.1.15,2013-02-28 18:22:00,
2013-02-28 12:27:00,25.1,20.7,30.21,NW,326,9.0,10.0,83,0.00,,,0.00,Wunderground v.1.15,2013-02-28 18:27:00,
2013-02-28 12:32:00,25.0,20.3,30.20,NW,325,8.0,12.0,82,0.00,,,0.00,Wunderground v.1.15,2013-02-28 18:32:00,
2013-02-28 12:37:00,25.1,20.7,30.21,NW,321,10.0,13.0,83,0.00,,,0.00,Wunderground v.1.15,2013-02-28 18:37:00,
2013-02-28 12:42:00,25.2,20.8,30.21,NW,325,9.0,11.0,83,0.00,,,0.00,Wunderground v.1.15,2013-02-28 18:42:00,
2013-02-28 12:47:00,25.4,21.0,30.21,NW,322,7.0,11.0,83,0.00,,,0.00,Wunderground v.1.15,2013-02-28 18:47:00,
2013-02-28 12:53:00,25.5,21.1,30.21,NNW,329,8.0,13.0,83,0.00,,,0.00,Wunderground v.1.15,2013-02-28 18:53:00,
2013-02-28 12:58:00,25.5,21.1,30.20,NW,323,7.0,13.0,83,0.00,,,0.00,Wunderground v.1.15,2013-02-28 18:58:00,
2013-02-28 13:03:00,25.6,20.9,30.20,NW,326,9.0,11.0,82,0.00,,,0.00,Wunderground v.1.15,2013-02-28 19:03:00,
2013-02-28 13:08:00,25.7,21.0,30.20,NNW,327,7.0,12.0,82,0.00,,,0.00,Wunderground v.1.15,2013-02-28 19:08:00,
2013-02-28 13:13:00,25.7,21.0,30.20,NW,325,3.0,11.0,82,0.00,,,0.00,Wunderground v.1.15,2013-02-28 19:13:00,
2013-02-28 13:18:00,25.6,20.9,30.20,NW,323,10.0,13.0,82,0.00,,,0.00,Wunderground v.1.15,2013-02-28 19:18:00,
2013-02-28 13:23:00,25.4,20.7,30.20,NNW,327,6.0,10.0,82,0.00,,,0.00,Wunderground v.1.15,2013-02-28 19:23:00,
2013-02-28 13:28:00,25.4,21.0,30.19,NW,325,5.0,11.0,83,0.00,,,0.00,Wunderground v.1.15,2013-02-28 19:28:00,
2013-02-28 13:33:00,25.4,21.0,30.20,NNW,327,9.0,9.0,83,0.00,,,0.00,Wunderground v.1.15,2013-02-28 19:33:00,
2013-02-28 13:38:00,25.5,21.1,30.20,NW,323,7.0,11.0,83,0.00,,,0.00,Wunderground v.1.15,2013-02-28 19:38:00,
2013-02-28 13:43:00,25.5,21.1,30.20,NW,326,7.0,12.0,83,0.00,,,0.00,Wunderground v.1.15,2013-02-28 19:43:00,
2013-02-28 13:48:00,25.5,21.1,30.20,NW,323,12.0,12.0,83,0.00,,,0.00,Wunderground v.1.15,2013-02-28 19:48:00,
2013-02-28 13:53:00,25.5,21.1,30.19,NW,323,8.0,11.0,83,0.00,,,0.00,Wunderground v.1.15,2013-02-28 19:53:00,
2013-02-28 13:58:00,25.6,20.9,30.20,NW,325,6.0,11.0,82,0.00,,,0.00,Wunderground v.1.15,2013-02-28 19:58:00,
2013-02-28 14:03:00,25.7,21.0,30.19,NW,323,10.0,11.0,82,0.00,,,0.00,Wunderground v.1.15,2013-02-28 20:03:00,
2013-02-28 14:08:00,25.6,20.9,30.19,NNW,329,7.0,12.0,82,0.00,,,0.00,Wunderground v.1.15,2013-02-28 20:08:00,
2013-02-28 14:13:00,25.6,20.9,30.20,NNW,329,1.0,9.0,82,0.00,,,0.00,Wunderground v.1.15,2013-02-28 20:13:00,
2013-02-28 14:18:00,25.6,20.9,30.19,NNW,327,8.0,12.0,82,0.00,,,0.00,Wunderground v.1.15,2013-02-28 20:18:00,
2013-02-28 14:24:00,25.6,20.9,30.19,NW,325,6.0,11.0,82,0.00,,,0.00,Wunderground v.1.15,2013-02-28 20:24:00,
2013-02-28 14:29:00,25.4,20.7,30.20,NNW,327,3.0,11.0,82,0.00,,,0.00,Wunderground v.1.15,2013-02-28 20:29:00,
2013-02-28 14:34:00,25.4,20.7,30.20,NW,324,8.0,13.0,82,0.00,,,0.00,Wunderground v.1.15,2013-02-28 20:34:00,
2013-02-28 14:39:00,25.3,20.9,30.20,NNW,327,12.0,13.0,83,0.00,,,0.00,Wunderground v.1.15,2013-02-28 20:39:00,
2013-02-28 14:44:00,25.2,20.8,30.20,NW,323,12.0,12.0,83,0.00,,,0.00,Wunderground v.1.15,2013-02-28 20:44:00,
2013-02-28 14:49:00,25.2,20.8,30.20,NNW,327,6.0,12.0,83,0.00,,,0.00,Wunderground v.1.15,2013-02-28 20:49:00,
2013-02-28 14:54:00,25.3,20.9,30.20,NNW,328,8.0,11.0,83,0.00,,,0.00,Wunderground v.1.15,2013-02-28 20:54:00,
2013-02-28 14:59:00,25.2,20.8,30.20,NW,323,8.0,13.0,83,0.00,,,0.00,Wunderground v.1.15,2013-02-28 20:59:00,
2013-02-28 15:04:00,25.2,20.8,30.20,NNW,327,6.0,12.0,83,0.00,,,0.00,Wunderground v.1.15,2013-02-28 21:04:00,
2013-02-28 15:09:00,25.1,20.7,30.20,NNW,327,5.0,12.0,83,0.00,,,0.00,Wunderground v.1.15,2013-02-28 21:09:00,
2013-02-28 15:14:00,25.1,20.7,30.20,NW,324,4.0,11.0,83,0.00,,,0.00,Wunderground v.1.15,2013-02-28 21:14:00,
2013-02-28 15:19:00,25.1,20.7,30.20,NW,323,10.0,13.0,83,0.00,,,0.00,Wunderground v.1.15,2013-02-28 21:19:00,
2013-02-28 15:24:00,25.0,20.6,30.20,NW,325,8.0,8.0,83,0.00,,,0.00,Wunderground v.1.15,2013-02-28 21:24:00,
2013-02-28 15:29:00,25.0,20.6,30.20,NW,325,10.0,13.0,83,0.00,,,0.00,Wunderground v.1.15,2013-02-28 21:29:00,
2013-02-28 15:34:00,25.0,20.6,30.21,NW,323,3.0,15.0,83,0.00,,,0.00,Wunderground v.1.15,2013-02-28 21:34:00,
2013-02-28 15:39:00,25.0,20.6,30.20,NW,322,6.0,15.0,83,0.00,,,0.00,Wunderground v.1.15,2013-02-28 21:39:00,
2013-02-28 15:44:00,25.1,20.7,30.20,NW,325,4.0,11.0,83,0.00,,,0.00,Wunderground v.1.15,2013-02-28 21:44:00,
2013-02-28 15:49:00,25.0,20.6,30.20,NW,326,7.0,11.0,83,0.00,,,0.00,Wunderground v.1.15,2013-02-28 21:49:00,
2013-02-28 15:54:00,25.0,20.6,30.20,NW,326,1.0,10.0,83,0.00,,,0.00,Wunderground v.1.15,2013-02-28 21:54:00,
2013-02-28 15:59:00,24.9,20.5,30.20,NW,325,2.0,14.0,83,0.00,,,0.00,Wunderground v.1.15,2013-02-28 21:59:00,
2013-02-28 16:04:00,24.9,20.5,30.20,NW,325,4.0,8.0,83,0.00,,,0.00,Wunderground v.1.15,2013-02-28 22:04:00,
2013-02-28 16:09:00,24.9,20.5,30.20,NW,325,2.0,9.0,83,0.00,,,0.00,Wunderground v.1.15,2013-02-28 22:09:00,
2013-02-28 16:14:00,24.9,20.5,30.20,NW,325,3.0,5.0,83,0.00,,,0.00,Wunderground v.1.15,2013-02-28 22:14:00,
2013-02-28 16:19:00,24.8,20.4,30.20,NW,325,2.0,5.0,83,0.00,,,0.00,Wunderground v.1.15,2013-02-28 22:19:00,
2013-02-28 16:24:00,24.9,20.5,30.20,NW,324,2.0,9.0,83,0.00,,,0.00,Wunderground v.1.15,2013-02-28 22:24:00,
2013-02-28 16:29:00,24.8,20.4,30.20,NW,323,5.0,9.0,83,0.00,,,0.00,Wunderground v.1.15,2013-02-28 22:29:00,
2013-02-28 16:34:00,24.8,20.4,30.20,NW,324,2.0,6.0,83,0.00,,,0.00,Wunderground v.1.15,2013-02-28 22:34:00,
2013-02-28 16:39:00,24.7,20.3,30.20,NW,325,2.0,10.0,83,0.00,,,0.00,Wunderground v.1.15,2013-02-28 22:39:00,
2013-02-28 16:44:00,24.7,20.6,30.20,NW,325,5.0,8.0,84,0.00,,,0.00,Wunderground v.1.15,2013-02-28 22:44:00,
2013-02-28 16:49:00,24.6,20.5,30.20,NW,325,7.0,8.0,84,0.00,,,0.00,Wunderground v.1.15,2013-02-28 22:49:00,
2013-02-28 16:54:00,24.4,20.3,30.20,NW,326,5.0,10.0,84,0.00,,,0.00,Wunderground v.1.15,2013-02-28 22:54:00,
2013-02-28 16:59:00,24.3,20.2,30.20,NW,325,5.0,11.0,84,0.00,,,0.00,Wunderground v.1.15,2013-02-28 22:59:00,
2013-02-28 17:04:00,24.2,20.3,30.20,NNW,327,3.0,10.0,85,0.00,,,0.00,Wunderground v.1.15,2013-02-28 23:04:00,
2013-02-28 17:09:00,24.1,20.2,30.20,NW,326,6.0,10.0,85,0.00,,,0.00,Wunderground v.1.15,2013-02-28 23:09:00,
2013-02-28 17:14:00,24.1,20.2,30.20,NW,326,0.0,6.0,85,0.00,,,0.00,Wunderground v.1.15,2013-02-28 23:14:00,
2013-02-28 17:19:00,24.0,20.1,30.20,NW,326,2.0,6.0,85,0.00,,,0.00,Wunderground v.1.15,2013-02-28 23:19:00,
2013-02-28 17:24:00,24.0,20.1,30.21,NW,326,3.0,6.0,85,0.00,,,0.00,Wunderground v.1.15,2013-02-28 23:24:00,
2013-02-28 17:29:00,23.9,20.0,30.21,NW,326,1.0,6.0,85,0.00,,,0.00,Wunderground v.1.15,2013-02-28 23:29:00,
2013-02-28 17:34:00,23.9,20.3,30.21,NW,326,2.0,6.0,86,0.00,,,0.00,Wunderground v.1.15,2013-02-28 23:34:00,
2013-02-28 17:39:00,23.8,20.2,30.21,NW,326,0.0,6.0,86,0.00,,,0.00,Wunderground v.1.15,2013-02-28 23:39:00,
2013-02-28 17:44:00,23.8,20.2,30.21,NW,326,2.0,6.0,86,0.00,,,0.00,Wunderground v.1.15,2013-02-28 23:44:00,
2013-02-28 17:49:00,23.7,20.1,30.21,NW,326,1.0,7.0,86,0.00,,,0.00,Wunderground v.1.15,2013-02-28 23:49:00,
2013-02-28 17:54:00,23.7,20.1,30.22,NW,326,4.0,5.0,86,0.00,,,0.00,Wunderground v.1.15,2013-02-28 23:54:00,
2013-02-28 17:59:00,23.6,20.0,30.22,NW,326,1.0,7.0,86,0.00,,,0.00,Wunderground v.1.15,2013-02-28 23:59:00,
2013-02-28 18:04:00,23.6,20.0,30.22,NW,326,0.0,7.0,86,0.00,,,0.00,Wunderground v.1.15,2013-03-01 00:04:00,
2013-02-28 18:09:00,23.5,19.9,30.22,NW,326,1.0,7.0,86,0.00,,,0.00,Wunderground v.1.15,2013-03-01 00:09:00,
2013-02-28 18:14:00,23.5,19.9,30.23,NW,326,0.0,4.0,86,0.00,,,0.00,Wunderground v.1.15,2013-03-01 00:14:00,
2013-02-28 18:19:00,23.5,19.9,30.23,NW,326,0.0,7.0,86,0.00,,,0.00,Wunderground v.1.15,2013-03-01 00:19:00,
2013-02-28 18:24:00,23.5,19.9,30.23,NW,326,2.0,3.0,86,0.00,,,0.00,Wunderground v.1.15,2013-03-01 00:24:00,
2013-02-28 18:29:00,23.4,19.8,30.23,NW,326,3.0,5.0,86,0.00,,,0.00,Wunderground v.1.15,2013-03-01 00:29:00,
2013-02-28 18:34:00,23.4,19.8,30.23,NW,326,4.0,6.0,86,0.00,,,0.00,Wunderground v.1.15,2013-03-01 00:34:00,
2013-02-28 18:39:00,23.4,19.8,30.23,NW,326,0.0,6.0,86,0.00,,,0.00,Wunderground v.1.15,2013-03-01 00:39:00,
2013-02-28 18:44:00,23.4,19.8,30.23,NW,326,4.0,4.0,86,0.00,,,0.00,Wunderground v.1.15,2013-03-01 00:44:00,
2013-02-28 18:49:00,23.3,19.7,30.23,NW,326,0.0,5.0,86,0.00,,,0.00,Wunderground v.1.15,2013-03-01 00:49:00,
2013-02-28 18:54:00,23.3,20.0,30.23,NW,326,4.0,4.0,87,0.00,,,0.00,Wunderground v.1.15,2013-03-01 00:54:00,
2013-02-28 18:59:00,23.3,20.0,30.23,NW,326,3.0,4.0,87,0.00,,,0.00,Wunderground v.1.15,2013-03-01 00:59:00,
2013-02-28 19:04:00,23.3,20.0,30.23,NW,326,3.0,6.0,87,0.00,,,0.00,Wunderground v.1.15,2013-03-01 01:04:00,
2013-02-28 19:09:00,23.2,19.9,30.23,NW,326,5.0,6.0,87,0.00,,,0.00,Wunderground v.1.15,2013-03-01 01:09:00,
2013-02-28 19:14:00,23.2,19.9,30.24,NW,326,0.0,6.0,87,0.00,,,0.00,Wunderground v.1.15,2013-03-01 01:14:00,
2013-02-28 19:19:00,23.2,19.9,30.24,NW,326,4.0,6.0,87,0.00,,,0.00,Wunderground v.1.15,2013-03-01 01:19:00,
2013-02-28 19:24:00,23.1,19.8,30.24,NW,326,2.0,5.0,87,0.00,,,0.00,Wunderground v.1.15,2013-03-01 01:24:00,
2013-02-28 19:29:00,23.1,19.8,30.24,NW,326,0.0,5.0,87,0.00,,,0.00,Wunderground v.1.15,2013-03-01 01:29:00,
2013-02-28 19:34:00,23.1,19.8,30.24,NW,326,0.0,6.0,87,0.00,,,0.00,Wunderground v.1.15,2013-03-01 01:34:00,
2013-02-28 19:39:00,23.1,19.8,30.23,NW,326,4.0,6.0,87,0.00,,,0.00,Wunderground v.1.15,2013-03-01 01:39:00,
2013-02-28 19:45:00,23.1,19.8,30.24,NW,326,0.0,6.0,87,0.00,,,0.00,Wunderground v.1.15,2013-03-01 01:45:00,
2013-02-28 19:50:00,23.1,19.8,30.24,NW,326,4.0,4.0,87,0.00,,,0.00,Wunderground v.1.15,2013-03-01 01:50:00,
2013-02-28 19:56:00,23.0,19.7,30.23,NW,326,1.0,6.0,87,0.00,,,0.00,Wunderground v.1.15,2013-03-01 01:56:00,
2013-02-28 20:01:00,23.0,19.7,30.23,NW,326,0.0,3.0,87,0.00,,,0.00,Wunderground v.1.15,2013-03-01 02:01:00,
2013-02-28 20:07:00,23.0,19.7,30.23,NW,326,4.0,6.0,87,0.00,,,0.00,Wunderground v.1.15,2013-03-01 02:07:00,
2013-02-28 20:12:00,22.9,19.6,30.24,NW,326,1.0,4.0,87,0.00,,,0.00,Wunderground v.1.15,2013-03-01 02:12:00,
2013-02-28 20:17:00,22.9,19.6,30.24,NW,326,0.0,4.0,87,0.00,,,0.00,Wunderground v.1.15,2013-03-01 02:17:00,
2013-02-28 20:22:00,22.9,19.6,30.24,NW,326,0.0,4.0,87,0.00,,,0.00,Wunderground v.1.15,2013-03-01 02:22:00,
2013-02-28 20:27:00,22.9,19.6,30.24,NW,326,0.0,5.0,87,0.00,,,0.00,Wunderground v.1.15,2013-03-01 02:27:00,
2013-02-28 20:32:00,22.9,19.6,30.24,NW,326,2.0,4.0,87,0.00,,,0.00,Wunderground v.1.15,2013-03-01 02:32:00,
2013-02-28 20:37:00,22.8,19.5,30.24,NW,326,0.0,4.0,87,0.00,,,0.00,Wunderground v.1.15,2013-03-01 02:37:00,
2013-02-28 20:42:00,22.8,19.5,30.24,NW,326,4.0,5.0,87,0.00,,,0.00,Wunderground v.1.15,2013-03-01 02:42:00,
2013-02-28 20:48:00,22.8,19.5,30.24,NW,326,0.0,5.0,87,0.00,,,0.00,Wunderground v.1.15,2013-03-01 02:48:00,
2013-02-28 20:53:00,22.7,19.4,30.24,NW,326,1.0,4.0,87,0.00,,,0.00,Wunderground v.1.15,2013-03-01 02:53:00,
2013-02-28 20:58:00,22.7,19.4,30.24,NW,326,1.0,9.0,87,0.00,,,0.00,Wunderground v.1.15,2013-03-01 02:58:00,
2013-02-28 21:03:00,22.7,19.4,30.24,NW,326,1.0,6.0,87,0.00,,,0.00,Wunderground v.1.15,2013-03-01 03:03:00,
2013-02-28 21:08:00,22.7,19.4,30.24,NW,326,1.0,6.0,87,0.00,,,0.00,Wunderground v.1.15,2013-03-01 03:08:00,
2013-02-28 21:13:00,22.6,19.3,30.24,NW,325,1.0,6.0,87,0.00,,,0.00,Wunderground v.1.15,2013-03-01 03:13:00,
2013-02-28 21:18:00,22.6,19.3,30.24,NW,325,4.0,7.0,87,0.00,,,0.00,Wunderground v.1.15,2013-03-01 03:18:00,
2013-02-28 21:24:00,22.6,19.3,30.24,NW,325,5.0,5.0,87,0.00,,,0.00,Wunderground v.1.15,2013-03-01 03:24:00,
2013-02-28 21:29:00,22.6,19.3,30.24,NW,325,0.0,6.0,87,0.00,,,0.00,Wunderground v.1.15,2013-03-01 03:29:00,
2013-02-28 21:34:00,22.6,19.3,30.24,NW,324,5.0,8.0,87,0.00,,,0.00,Wunderground v.1.15,2013-03-01 03:34:00,
2013-02-28 21:39:00,22.5,19.2,30.24,NW,323,4.0,10.0,87,0.00,,,0.00,Wunderground v.1.15,2013-03-01 03:39:00,
2013-02-28 21:44:00,22.5,19.2,30.24,NW,325,4.0,9.0,87,0.00,,,0.00,Wunderground v.1.15,2013-03-01 03:44:00,
2013-02-28 21:49:00,22.4,19.1,30.24,NW,323,2.0,9.0,87,0.00,,,0.00,Wunderground v.1.15,2013-03-01 03:49:00,
2013-02-28 21:54:00,22.4,19.1,30.24,NW,324,2.0,6.0,87,0.00,,,0.00,Wunderground v.1.15,2013-03-01 03:54:00,
2013-02-28 21:59:00,22.4,19.1,30.24,NW,325,0.0,6.0,87,0.00,,,0.00,Wunderground v.1.15,2013-03-01 03:59:00,
2013-02-28 22:04:00,22.4,19.1,30.24,NW,326,1.0,11.0,87,0.00,,,0.00,Wunderground v.1.15,2013-03-01 04:04:00,
2013-02-28 22:09:00,22.3,19.0,30.24,NW,326,2.0,11.0,87,0.00,,,0.00,Wunderground v.1.15,2013-03-01 04:09:00,
2013-02-28 22:14:00,22.2,18.9,30.24,NW,326,2.0,7.0,87,0.00,,,0.00,Wunderground v.1.15,2013-03-01 04:14:00,
2013-02-28 22:19:00,22.2,18.9,30.24,NNW,327,3.0,7.0,87,0.00,,,0.00,Wunderground v.1.15,2013-03-01 04:19:00,
2013-02-28 22:24:00,22.2,18.9,30.24,NNW,327,2.0,7.0,87,0.00,,,0.00,Wunderground v.1.15,2013-03-01 04:24:00,
2013-02-28 22:29:00,22.2,18.9,30.24,NW,326,5.0,8.0,87,0.00,,,0.00,Wunderground v.1.15,2013-03-01 04:29:00,
2013-02-28 22:34:00,22.2,18.9,30.24,NNW,327,2.0,10.0,87,0.00,,,0.00,Wunderground v.1.15,2013-03-01 04:34:00,
2013-02-28 22:39:00,22.1,18.8,30.24,NNW,327,3.0,10.0,87,0.00,,,0.00,Wunderground v.1.15,2013-03-01 04:39:00,
2013-02-28 22:44:00,22.1,19.1,30.24,NNW,327,2.0,6.0,88,0.00,,,0.00,Wunderground v.1.15,2013-03-01 04:44:00,
2013-02-28 22:49:00,22.1,19.1,30.24,NNW,327,4.0,9.0,88,0.00,,,0.00,Wunderground v.1.15,2013-03-01 04:49:00,
2013-02-28 22:54:00,22.1,19.1,30.24,NNW,327,2.0,6.0,88,0.00,,,0.00,Wunderground v.1.15,2013-03-01 04:54:00,
2013-02-28 22:59:00,22.0,19.0,30.24,NNW,327,6.0,9.0,88,0.00,,,0.00,Wunderground v.1.15,2013-03-01 04:59:00,
2013-02-28 23:01:00,22.0,19.0,30.24,NNW,327,4.0,4.0,88,0.00,,,0.00,Wunderground v.1.15,2013-03-01 05:01:00,
2013-02-28 23:02:00,22.0,19.0,30.24,NNW,327,2.0,6.0,88,0.00,,,0.00,Wunderground v.1.15,2013-03-01 05:02:00,
2013-02-28 23:06:00,22.0,19.0,30.24,NNW,327,7.0,7.0,88,0.00,,,0.00,Wunderground v.1.15,2013-03-01 05:06:00,
2013-02-28 23:11:00,22.0,19.0,30.24,NNW,327,2.0,4.0,88,0.00,,,0.00,Wunderground v.1.15,2013-03-01 05:11:00,
2013-02-28 23:17:00,21.9,18.9,30.23,NNW,327,3.0,8.0,88,0.00,,,0.00,Wunderground v.1.15,2013-03-01 05:17:00,
2013-02-28 23:22:00,21.9,18.9,30.23,NNW,327,0.0,3.0,88,0.00,,,0.00,Wunderground v.1.15,2013-03-01 05:22:00,
2013-02-28 23:27:00,21.9,18.9,30.23,NNW,327,0.0,8.0,88,0.00,,,0.00,Wunderground v.1.15,2013-03-01 05:27:00,
2013-02-28 23:32:00,21.9,18.9,30.23,NNW,327,3.0,4.0,88,0.00,,,0.00,Wunderground v.1.15,2013-03-01 05:32:00,
2013-02-28 23:37:00,21.8,18.8,30.23,NNW,327,0.0,8.0,88,0.00,,,0.00,Wunderground v.1.15,2013-03-01 05:37:00,
2013-02-28 23:42:00,21.8,18.8,30.23,NW,326,0.0,2.0,88,0.00,,,0.00,Wunderground v.1.15,2013-03-01 05:42:00,
2013-02-28 23:47:00,21.7,18.7,30.23,NNW,327,0.0,8.0,88,0.00,,,0.00,Wunderground v.1.15,2013-03-01 05:47:00,
2013-02-28 23:52:00,21.7,18.7,30.23,NW,326,1.0,2.0,88,0.00,,,0.00,Wunderground v.1.15,2013-03-01 05:52:00,
2013-02-28 23:58:00,21.7,18.7,30.23,NNW,327,0.0,6.0,88,0.00,,,0.00,Wunderground v.1.15,2013-03-01 05:58:00,